Location: Boiro
(42.6475°N, 8.8834°W)
Time: 04:28:11
(UTC+01:00)

Vanguard 1 Rocket - Pass Details

Date: 11 December 2021
Orbit: 651 x 4224 km, 34.3° (Epoch: 21 January)

Event Time Altitude Azimuth Distance (km) Brightness Sun altitude
Rises 01:14:17 0° 213° (SSW) 3,364 - -70.1°
Reaches altitude 10° 01:16:45 10° 199° (SSW) 2,675 - -70.2°
Maximum altitude 01:21:59 26° 143° (SE) 2,290 - -70.3°
Drops below altitude 10° 01:30:14 10° 92° (E) 4,359 - -70.3°
Exits shadow 01:34:27 - 85° (E) 5,672 11.5 -70.3°
Sets 01:35:38 0° 83° (E) 6,033 11.7 -70.3°
